User: anonymous   Login
Location: Brachbach
(49.1847°N, 9.7240°E)
Time: 09:50:55
(UTC+00:00)
Language:

Cosmos 1300 - Orbit

View from above orbital plane
View from above orbital plane
View from above satellite
View from above satellite

Ground track
Ground track

The orbit data is extracted from the following two-line orbital elements,

1 12785U 81082A   24197.92926865  .00017674  00000-0  53730-3 0  9998
2 12785  82.4964  24.6571 0000965 118.1195 242.0145 15.33922793344349
Epoch (UTC): 15 July 2024 22:18:08
Eccentricity: 0.0000965
inclination: 82.4964°
perigee height: 463 km
apogee height: 465 km
right ascension of ascending node: 24.6571°
argument of perigee: 118.1195°
revolutions per day: 15.33922793
mean anomaly at epoch: 242.0145°
orbit number at epoch: 34434

The dashed part of the orbit path shows where the satellite is in the earth's shadow,  

DLR